Weather History for KPIE - May, 2014

Change the Weather History Date:

Saturday, May 24, 2014

  Actual Average Record
Temperature  
Mean Temperature 82 °F -  
Max Temperature 91 °F 86 °F 93 °F (2012)
Min Temperature 72 °F 72 °F 17 °F (2007)
Cooling Degree Days 16    
Growing Degree Days 32 (Base 50)    
Moisture  
Dew Point 70 °F    
Average Humidity 74    
Maximum Humidity 93    
Minimum Humidity 38    
Precipitation  
Precipitation 0.00 in - - ()
Sea Level Pressure  
Sea Level Pressure 30.06 in    
Wind  
Wind Speed 5 mph (WNW)    
Max Wind Speed 9 mph    
Max Gust Speed -    
Visibility 8 miles    
Events      
Averages and records for this station are not official NWS values.
T = Trace of Precipitation, MM = Missing Value Source: NWS Daily Summary

Daily Weather History Graph

Daily Weather History Graph

Search for Another Location

Airport or City:

Trip Planner

Search our weather history database for the weather conditions in past years. The results will help you decide how hot, cold, wet, or windy it might be!

Date:

Astronomy

May. 24, 2014 Rise Set
Actual Time 6:37 AM EDT 8:18 PM EDT
Civil Twilight 6:11 AM EDT 8:44 PM EDT
Nautical Twilight 5:39 AM EDT 9:15 PM EDT
Astronomical Twilight 5:07 AM EDT 9:48 PM EDT
Moon 3:43 AM EDT (5/24) 4:33 PM EDT (5/24)
Length of Visible Light 14h 33m
Length of Day
13h 41m
Waning Crescent, 18% of the Moon is Illuminated
May 24
Waning Crescent
May 28
New
Jun 5
First Quarter
Jun 13
Full
Jun 19
Last Quarter

Hourly Weather History & Observations

Time (EDT) Temp. Heat Index Dew Point Humidity Pressure Visibility Wind Dir Wind Speed Gust Speed Precip Events Conditions
12:50 AM 75.2 °F - 71.6 °F 89% 30.07 in 8.0 mi West 4.6 mph - N/A   Partly Cloudy
12:53 AM 75.2 °F - 71.6 °F 89% 30.07 in 8.0 mi West 4.6 mph - N/A   Partly Cloudy
1:53 AM 73.9 °F - 71.1 °F 91% 30.06 in 7.0 mi WNW 5.8 mph - N/A   Clear
2:53 AM 73.9 °F - 71.1 °F 91% 30.05 in 7.0 mi WNW 3.5 mph - N/A   Clear
3:53 AM 73.0 °F - 70.0 °F 90% 30.04 in 7.0 mi Calm Calm - N/A   Clear
4:53 AM 72.0 °F - 70.0 °F 93% 30.05 in 6.0 mi Calm Calm - N/A   Clear
5:53 AM 72.0 °F - 70.0 °F 93% 30.06 in 7.0 mi SSW 4.6 mph - N/A   Clear
6:53 AM 73.0 °F - 71.1 °F 93% 30.07 in 6.0 mi West 4.6 mph - N/A   Clear
7:53 AM 75.9 °F - 72.0 °F 87% 30.08 in 5.0 mi West 4.6 mph - N/A   Clear
8:53 AM 79.0 °F - 72.0 °F 79% 30.10 in 8.0 mi West 6.9 mph - N/A   Partly Cloudy
9:53 AM 81.0 °F 84.9 °F 71.1 °F 72% 30.11 in 10.0 mi WNW 5.8 mph - N/A   Partly Cloudy
10:53 AM 82.9 °F 87.5 °F 71.1 °F 67% 30.12 in 10.0 mi NNW 9.2 mph - N/A   Clear
11:53 AM 84.9 °F 90.1 °F 71.1 °F 63% 30.11 in 10.0 mi NNW 6.9 mph - N/A   Clear
12:53 PM 87.1 °F 92.8 °F 71.1 °F 59% 30.09 in 10.0 mi NNW 6.9 mph - N/A   Clear
1:53 PM 91.0 °F 95.2 °F 68.0 °F 47% 30.07 in 10.0 mi North 8.1 mph - N/A   Clear
2:53 PM 90.0 °F 90.0 °F 61.0 °F 38% 30.05 in 10.0 mi North 5.8 mph - N/A   Partly Cloudy
3:53 PM 90.0 °F 90.0 °F 61.0 °F 38% 30.03 in 10.0 mi North 5.8 mph - N/A   Clear
4:53 PM 88.0 °F 92.1 °F 69.1 °F 53% 30.04 in 10.0 mi West 9.2 mph - N/A   Clear
5:53 PM 87.1 °F 88.9 °F 64.9 °F 48% 30.03 in 10.0 mi West 6.9 mph - N/A   Clear
6:53 PM 84.2 °F 87.3 °F 68.0 °F 58% 30.03 in 10.0 mi NW 9.2 mph - N/A   Clear
7:53 PM 80.1 °F 83.8 °F 72.0 °F 76% 30.04 in 8.0 mi WNW 9.2 mph - N/A   Clear
8:53 PM 79.0 °F - 73.0 °F 82% 30.04 in 8.0 mi West 9.2 mph - N/A   Clear
9:53 PM 78.1 °F - 73.9 °F 87% 30.04 in 7.0 mi WNW 6.9 mph - N/A   Clear
10:53 PM 78.8 °F - 73.4 °F 83% 30.05 in 7.0 mi WNW 4.6 mph - N/A   Clear
11:53 PM 78.1 °F - 73.9 °F 87% 30.05 in 6.0 mi WNW 4.6 mph - N/A   Clear